TimeEDT,TemperatureF,Dew PointF,Humidity,Sea Level PressureIn,VisibilityMPH,Wind Direction,Wind SpeedMPH,Gust SpeedMPH,PrecipitationIn,Events,Conditions,WindDirDegrees,DateUTC
12:01 AM,35.6,33.8,93,29.59,6.0,WNW,11.5,24.2,0.01,Snow,Light Snow,290,2012-10-30 04:01:00
12:05 AM,35.6,33.8,93,29.59,7.0,WNW,13.8,24.2,0.01,Snow,Light Snow,290,2012-10-30 04:05:00
12:15 AM,35.6,33.8,93,29.58,8.0,WNW,15.0,24.2,0.01,Rain,Light Rain,290,2012-10-30 04:15:00
12:51 AM,35.1,32.0,89,29.57,5.0,WNW,13.8,28.8,0.04,Snow,Light Snow,290,2012-10-30 04:51:00
1:12 AM,33.8,32.0,93,29.55,4.0,WNW,11.5,24.2,0.02,Snow,Light Snow,290,2012-10-30 05:12:00
1:49 AM,33.8,32.0,93,29.53,2.5,WNW,11.5,23.0,0.06,Snow,Light Snow,290,2012-10-30 05:49:00
1:51 AM,34.0,32.0,92,29.55,2.5,WNW,10.4,23.0,0.07,Snow,Light Snow,290,2012-10-30 05:51:00
2:51 AM,33.8,32.0,93,29.50,2.5,WNW,12.7,20.7,N/A,Snow,Light Snow,290,2012-10-30 06:51:00
3:44 AM,33.8,32.0,93,29.47,1.8,WNW,11.5,24.2,0.05,Snow,Light Snow,290,2012-10-30 07:44:00
3:51 AM,33.1,32.0,96,29.48,2.0,WNW,15.0,28.8,0.06,Snow,Light Snow,290,2012-10-30 07:51:00
4:05 AM,33.8,32.0,93,29.46,1.8,WNW,9.2,31.1,0.01,Snow,Light Snow,290,2012-10-30 08:05:00
4:51 AM,33.1,32.0,96,29.47,2.0,West,12.7,24.2,0.07,Snow,Light Snow,280,2012-10-30 08:51:00
5:51 AM,33.1,30.9,92,29.47,1.2,West,11.5,19.6,0.08,Snow,Light Snow,270,2012-10-30 09:51:00
6:51 AM,32.0,30.9,96,29.46,1.2,West,12.7,19.6,0.05,Snow,Light Snow,260,2012-10-30 10:51:00
7:51 AM,32.0,30.9,96,29.47,1.2,West,10.4,19.6,0.05,Snow,Light Snow,260,2012-10-30 11:51:00
8:31 AM,32.0,30.2,93,29.46,0.8,West,8.1,21.9,0.03,Snow,Light Snow,270,2012-10-30 12:31:00
8:51 AM,33.1,30.9,92,29.47,1.0,West,12.7,-,0.05,Snow,Light Snow,260,2012-10-30 12:51:00
9:21 AM,33.8,30.2,87,29.46,0.8,West,11.5,19.6,0.03,Snow,Light Snow,260,2012-10-30 13:21:00
9:51 AM,33.1,30.9,92,29.47,1.0,West,12.7,19.6,0.05,Snow,Light Snow,260,2012-10-30 13:51:00
10:51 AM,33.1,32.0,96,29.47,1.2,West,12.7,21.9,0.04,Snow,Light Snow,260,2012-10-30 14:51:00
11:51 AM,34.0,32.0,92,29.48,2.0,West,12.7,21.9,0.03,Snow,Light Snow,260,2012-10-30 15:51:00
12:51 PM,34.0,33.1,96,29.48,2.0,West,9.2,23.0,0.05,Snow,Light Snow,260,2012-10-30 16:51:00
1:51 PM,36.0,34.0,93,29.48,3.0,West,11.5,21.9,0.04,Rain,Light Rain,260,2012-10-30 17:51:00
2:51 PM,36.0,35.1,97,29.48,3.0,West,12.7,21.9,0.05,Rain,Light Rain,260,2012-10-30 18:51:00
3:51 PM,37.9,36.0,93,29.50,3.0,West,13.8,21.9,0.04,Rain,Light Rain,270,2012-10-30 19:51:00
4:51 PM,39.0,37.0,93,29.51,3.0,West,10.4,19.6,0.03,Rain,Light Rain,270,2012-10-30 20:51:00
5:51 PM,39.0,36.0,89,29.53,7.0,West,15.0,25.3,0.02,Rain,Light Rain,270,2012-10-30 21:51:00
5:58 PM,39.2,37.4,93,29.52,7.0,West,9.2,20.7,0.00,Rain,Light Rain,270,2012-10-30 21:58:00
6:51 PM,39.0,37.0,93,29.56,6.0,West,10.4,23.0,0.02,Rain,Light Rain,270,2012-10-30 22:51:00
7:51 PM,39.0,37.0,93,29.60,5.0,West,10.4,18.4,0.02,Rain,Light Rain,260,2012-10-30 23:51:00
8:51 PM,39.0,37.0,93,29.61,8.0,West,8.1,-,0.03,Rain,Light Rain,260,2012-10-31 00:51:00
9:51 PM,39.0,37.0,93,29.63,10.0,WSW,11.5,17.3,0.02,Rain,Light Rain,250,2012-10-31 01:51:00
9:59 PM,39.2,37.4,93,29.62,10.0,WSW,8.1,-,0.00,Rain,Light Rain,250,2012-10-31 01:59:00
10:11 PM,39.2,37.4,93,29.62,9.0,WSW,10.4,-,0.00,Rain,Light Rain,250,2012-10-31 02:11:00
10:51 PM,39.0,37.0,93,29.64,6.0,WSW,10.4,17.3,0.02,Rain,Light Rain,250,2012-10-31 02:51:00
11:51 PM,39.2,37.4,93,29.62,9.0,WSW,9.2,-,N/A,,Overcast,250,2012-10-31 03:51:00